Theta_e
352 352 355 357 356 355 355 354 353 352 352 352 351 350 350 351 351 350 350 350 349 349 348 348 349 350 349 348 348 347 346 344 344 344 344 344 344 346 347 350 350 349 348 348 348 350 349 350 349 349 348 348 347 347 348 347 347 347 346 346 346 345 346 346 347 346 346 346 346 346 346 346 347 346 347 347 348 348 347 346 344 343 343 344 344
351 353 355 355 356 355 354 353 354 353 350 350 350 351 351 351 350 350 349 349 349 349 349 350 349 348 348 348 347 346 345 345 345 344 344 344 344 343 345 349 351 349 348 348 349 348 348 348 348 348 348 347 348 348 348 348 347 347 346 346 346 346 346 345 345 345 345 345 345 345 346 345 345 346 347 348 346 346 345 345 345 342 342 344 344
353 354 355 354 355 355 353 352 352 351 351 352 352 352 350 349 349 349 349 349 350 350 350 349 349 348 348 347 347 345 345 345 344 344 345 344 344 344 345 347 347 348 348 348 348 348 348 348 348 348 347 348 348 348 347 347 347 346 346 346 345 345 345 345 345 345 346 346 346 344 345 346 345 345 346 345 347 345 344 343 343 343 343 343 343
351 353 355 355 355 354 352 352 352 352 351 351 350 349 349 349 349 349 350 350 349 349 349 348 348 348 347 346 346 345 345 345 345 344 344 344 343 344 344 345 346 348 348 348 348 348 348 348 348 348 347 346 347 347 347 346 347 346 345 346 346 345 345 345 345 345 345 345 345 343 342 341 343 344 345 346 346 345 343 342 341 341 341 340 341
352 354 354 353 353 354 353 352 352 352 352 351 351 349 349 348 349 349 349 349 349 349 349 348 348 348 347 346 346 346 345 345 345 344 344 344 345 344 345 344 346 348 348 348 348 349 348 348 348 348 348 347 347 346 346 346 346 346 345 345 346 345 345 344 344 344 344 344 342 340 339 339 340 343 344 345 344 343 341 339 339 339 341 341 341
353 354 354 352 352 353 354 353 353 352 351 351 351 350 349 349 349 349 349 349 349 349 348 348 348 348 347 347 346 346 345 344 344 344 343 343 345 343 342 344 346 347 346 347 347 347 347 347 347 347 347 347 345 345 346 346 345 346 345 345 344 344 343 343 342 341 341 340 338 335 334 337 337 336 340 342 342 342 341 340 338 338 339 340 341
353 354 353 353 352 352 353 353 353 351 351 351 351 351 349 348 348 349 348 348 349 349 348 348 348 347 347 347 347 346 346 346 345 343 342 342 342 343 343 344 345 346 346 346 347 346 347 347 346 346 346 345 344 345 346 346 346 346 345 344 344 343 343 341 340 340 338 334 331 332 333 335 337 338 341 341 341 340 339 339 342 342 342 341 339
353 353 353 352 352 353 353 352 352 351 350 351 351 351 351 350 349 348 348 349 348 348 349 348 348 347 347 347 347 346 346 346 346 346 346 346 344 342 344 345 346 346 346 346 346 346 346 347 347 346 345 343 344 346 346 345 345 345 344 344 343 343 342 340 339 339 337 331 331 332 332 332 332 335 341 341 341 339 338 338 338 339 340 337 337
352 353 353 352 352 354 352 352 351 351 351 351 351 350 349 349 349 349 348 348 349 349 348 348 348 347 347 347 347 346 346 346 346 347 347 347 347 347 347 347 347 346 346 346 345 345 345 345 346 345 343 343 345 346 345 345 345 345 344 343 343 342 340 339 339 338 335 334 333 334 334 334 334 332 335 337 336 335 336 338 338 337 337 335 336
352 352 352 352 352 353 352 352 351 351 352 351 350 349 349 349 350 349 349 348 348 348 348 348 348 347 347 347 346 346 346 346 349 350 349 350 349 348 347 346 346 346 345 346 346 346 345 345 344 343 343 344 345 345 344 344 346 345 343 343 342 341 340 339 338 337 332 334 334 334 337 337 334 336 338 339 339 339 337 336 335 334 335 336 337
351 352 352 352 352 353 352 352 352 351 351 351 351 350 350 349 349 349 348 348 348 348 347 348 348 347 347 347 347 347 346 348 349 350 349 348 348 348 347 347 346 346 346 346 347 347 346 345 344 343 343 344 345 345 343 344 344 344 343 342 341 340 338 337 334 331 331 331 331 334 337 338 333 333 335 338 339 340 337 337 339 341 342 341 342
351 352 352 351 354 352 352 352 352 352 352 351 351 350 350 349 349 349 348 348 348 348 348 348 348 347 347 347 346 346 346 348 349 348 348 349 349 350 349 348 347 346 346 346 346 347 346 345 344 344 344 344 345 344 343 344 343 343 342 341 340 338 337 336 330 330 330 331 333 333 332 333 332 334 338 338 342 342 342 341 341 341 340 341 340
350 352 352 351 351 352 352 352 353 352 352 351 350 350 350 349 349 349 349 349 349 349 348 348 348 348 348 347 346 347 347 347 347 347 349 350 350 349 348 348 347 347 347 347 347 346 345 345 345 344 345 345 345 344 343 343 342 341 341 340 339 338 337 336 330 330 330 331 333 333 333 334 335 338 338 339 339 341 341 340 340 340 339 340 339
350 351 351 351 351 354 352 351 351 352 351 350 350 351 350 349 349 349 349 349 349 349 349 349 349 349 349 348 347 348 347 346 347 349 350 350 350 349 348 348 347 347 347 347 347 346 345 345 344 344 346 346 345 343 342 342 341 340 340 339 338 338 338 336 334 331 332 332 335 334 334 336 334 338 338 337 337 339 338 338 338 338 338 338 338
349 350 350 350 351 351 354 352 351 351 350 350 350 350 350 350 350 350 350 350 349 349 350 349 348 349 349 349 347 347 347 347 348 350 350 350 350 349 348 348 348 347 347 347 346 345 345 345 345 345 345 346 345 344 342 341 341 341 339 339 338 337 335 330 331 331 332 333 333 332 333 334 335 336 338 338 338 337 337 337 336 337 337 336 337
350 350 350 350 350 351 351 353 352 351 351 351 351 351 350 350 350 350 350 350 349 350 350 349 348 348 348 349 348 347 347 348 350 350 350 350 350 349 348 348 347 347 347 346 346 345 345 345 345 345 345 346 345 344 342 342 341 340 339 338 337 336 336 332 329 328 330 331 333 334 333 334 337 336 337 337 336 336 336 337 336 335 335 335 335
350 350 349 349 348 348 349 350 350 352 351 351 351 351 350 350 350 350 350 349 350 350 350 349 348 348 349 349 348 347 348 350 351 350 350 350 349 347 347 347 347 347 347 347 345 345 345 344 343 345 346 346 345 343 342 341 341 340 339 338 337 337 336 333 327 328 330 333 332 331 334 334 336 337 336 335 335 336 335 336 335 335 334 334 334
348 349 348 349 348 349 349 348 349 349 349 350 351 351 350 350 350 350 349 349 349 350 350 350 349 349 349 349 349 348 349 351 350 350 350 348 347 347 347 347 347 347 347 346 346 345 345 344 344 344 345 346 345 343 342 341 340 340 339 337 337 336 336 334 329 332 334 334 331 334 334 335 336 336 337 336 336 336 336 335 334 334 333 333 333
347 348 348 348 348 349 347 347 347 346 347 347 348 349 350 350 350 350 349 349 349 350 350 350 350 349 350 349 349 349 350 351 351 350 349 348 347 347 346 346 346 346 346 346 346 345 344 344 344 344 345 344 344 343 342 341 340 339 338 337 337 336 337 333 329 329 331 330 331 331 334 338 335 334 334 335 335 334 334 334 334 333 333 333 333
346 346 347 348 348 347 347 346 345 346 346 346 346 347 348 350 350 349 349 349 349 350 350 350 350 350 349 350 350 350 347 348 350 349 349 348 347 345 346 346 346 346 346 346 346 345 345 344 345 345 344 344 343 342 341 340 340 339 338 337 337 336 328 328 328 329 331 335 334 332 336 336 336 336 335 334 334 334 334 334 333 332 331 331 330
344 345 346 347 347 346 346 345 345 346 347 346 346 345 348 349 348 349 349 350 349 350 350 350 349 349 348 349 347 344 345 345 347 347 348 346 346 346 346 346 346 346 346 346 345 345 345 344 344 343 343 343 343 342 341 341 340 339 338 337 335 328 328 329 330 333 331 332 333 332 337 336 334 334 335 334 334 332 332 332 332 332 333 333 332
340 342 345 346 346 346 345 345 346 347 347 346 345 345 346 346 345 345 347 347 348 348 347 346 348 345 347 345 343 346 342 343 344 347 345 346 345 346 346 346 346 346 346 346 345 345 345 345 344 344 344 343 343 340 341 342 341 340 337 336 328 328 328 328 329 330 330 331 334 334 335 335 334 334 334 334 332 332 331 331 331 331 331 331 332
337 340 342 345 345 345 346 345 346 346 346 346 345 345 343 342 343 344 345 347 347 345 344 344 342 342 342 342 343 342 341 343 344 345 345 345 346 346 346 346 346 346 346 346 346 345 345 344 344 343 341 341 337 336 336 336 338 339 336 329 327 327 328 328 329 329 329 333 332 335 334 334 335 334 333 332 333 333 333 333 333 332 331 331 331
336 339 340 344 344 344 345 345 345 346 345 345 345 344 343 342 342 343 343 343 341 344 342 342 342 341 340 340 340 341 341 341 346 346 347 344 345 346 345 346 346 346 345 345 345 345 345 343 342 340 337 336 334 335 334 333 330 327 327 327 327 327 328 329 330 330 331 334 331 334 335 333 333 333 334 334 333 332 331 331 331 332 331 331 330
337 339 340 341 343 344 344 344 345 345 345 344 344 344 343 341 341 341 341 340 339 339 341 339 340 340 340 339 339 341 339 340 340 341 340 341 341 341 341 339 338 339 340 334 336 339 337 336 335 334 333 333 333 333 332 328 327 327 327 327 328 328 330 331 331 330 331 333 335 334 333 334 334 333 333 333 333 332 332 332 332 332 329 329 329
338 337 339 341 342 343 344 344 345 344 344 344 344 345 344 342 341 340 340 341 340 339 338 338 338 339 339 339 340 338 337 338 337 337 338 338 339 337 336 335 334 335 338 335 333 333 333 333 334 334 333 332 332 332 331 328 326 327 327 328 329 330 330 330 331 331 331 333 335 333 335 334 334 334 334 334 333 332 332 332 331 330 330 329 329
334 336 340 340 341 342 343 343 343 343 343 344 344 344 342 343 343 343 341 341 340 339 338 338 338 338 339 340 338 337 337 336 337 337 337 338 338 335 334 334 334 335 337 336 334 332 333 333 334 333 332 332 331 330 329 327 327 327 328 328 330 330 331 331 331 331 332 333 335 335 334 334 333 333 332 332 332 332 332 332 332 331 330 330 330
332 334 337 339 340 341 342 343 342 342 342 343 343 342 342 342 343 344 342 344 341 340 339 338 338 338 338 339 339 338 338 336 338 339 339 338 338 336 334 334 336 337 336 335 333 330 331 332 333 333 333 332 330 329 328 328 328 329 329 330 331 331 331 331 331 331 332 332 334 334 333 333 332 333 334 334 333 333 333 333 331 331 331 331 331
331 332 335 337 339 340 341 341 341 342 342 342 342 341 341 342 342 342 340 344 341 341 340 339 338 338 338 338 338 336 337 337 338 339 339 337 336 335 335 335 336 336 334 332 331 329 328 330 332 333 331 330 330 328 328 329 330 330 331 331 331 331 332 332 332 332 332 332 333 335 334 333 334 335 334 334 335 336 335 334 334 333 333 333 332
331 331 334 336 337 338 338 339 340 341 341 341 341 340 340 340 341 341 340 343 339 340 340 339 339 338 338 337 337 336 335 336 337 338 338 336 334 333 334 334 334 334 332 331 329 329 327 328 330 332 331 330 329 330 329 329 330 332 332 332 332 332 332 333 333 332 332 332 333 336 335 335 336 337 338 335 337 337 337 336 334 334 333 333 332
329 329 331 333 335 335 335 336 337 340 340 340 339 339 340 340 340 341 341 340 339 340 340 340 339 339 338 337 336 335 334 334 336 337 337 336 333 332 332 332 331 331 331 331 329 329 326 328 329 331 331 330 329 331 329 329 331 332 333 332 332 332 333 333 334 333 332 332 333 333 334 334 335 337 340 339 337 338 338 338 337 334 333 333 333
328 329 329 331 334 334 334 334 335 339 339 340 339 338 338 339 339 339 340 339 339 338 339 339 339 338 338 337 335 334 335 333 335 336 335 334 332 332 331 330 331 329 330 330 329 328 326 327 328 330 332 330 330 329 329 330 330 331 332 331 332 332 333 333 333 333 333 333 332 333 335 336 335 339 340 340 339 338 338 338 338 338 335 333 333
327 328 329 332 333 333 332 333 334 335 336 337 337 337 337 338 338 338 339 339 338 338 337 338 339 338 337 337 336 335 335 333 334 335 335 333 332 331 330 331 331 331 330 330 330 327 328 328 329 332 331 330 329 328 329 328 329 329 331 331 332 332 333 333 332 333 333 332 332 332 333 335 336 339 339 339 339 338 338 337 336 336 337 337 335
326 327 328 330 332 332 333 333 333 333 333 333 335 335 335 336 337 336 338 338 337 337 337 338 339 338 337 336 336 334 334 333 333 333 333 332 331 330 330 330 330 330 330 329 329 328 328 328 329 330 332 329 327 327 327 327 327 329 330 331 332 333 333 332 332 332 332 331 331 331 331 331 332 335 337 338 338 338 337 337 336 336 336 336 335
326 326 328 328 331 331 332 332 333 331 334 333 334 333 333 335 335 336 336 337 336 336 336 337 337 337 337 336 335 335 335 334 334 333 332 332 331 330 329 330 331 331 330 330 329 329 329 329 330 329 328 327 327 328 327 326 327 328 329 330 331 332 333 332 332 332 331 330 331 331 331 331 332 332 333 333 336 337 336 336 336 337 336 335 335
327 327 327 328 330 330 332 330 331 331 331 333 333 333 333 333 333 336 335 336 336 335 335 335 336 337 337 337 336 335 335 334 334 334 332 331 331 330 329 331 333 332 331 331 331 329 329 329 330 329 327 326 327 325 326 326 327 328 329 330 331 332 332 331 331 331 330 330 330 330 330 331 332 335 335 331 332 335 335 336 336 336 337 336 335
328 327 327 328 329 330 332 329 331 332 332 333 332 330 332 332 333 335 335 336 335 334 333 333 335 336 337 338 337 336 336 334 334 334 331 330 331 330 331 332 334 331 330 331 331 330 330 329 327 329 329 326 326 324 325 326 327 328 329 329 330 331 331 331 330 330 330 330 329 329 330 330 335 335 330 331 331 330 332 335 335 336 337 338 337
327 327 328 329 329 329 329 331 331 333 333 334 333 331 331 332 334 334 335 335 335 335 334 334 335 336 337 337 337 337 337 335 334 332 330 331 331 331 331 332 331 330 330 330 330 331 330 329 326 327 327 327 325 324 324 326 327 328 328 329 329 330 330 329 329 330 329 328 329 329 330 332 331 330 330 331 330 328 327 330 332 333 336 337 337
326 327 328 329 328 328 328 330 330 332 333 334 334 333 333 333 334 335 334 335 335 335 335 335 335 336 336 338 337 334 335 335 335 332 331 332 331 331 330 331 330 329 330 329 329 329 329 328 327 326 327 326 325 325 326 327 327 328 328 328 329 328 327 329 329 329 329 328 329 330 330 331 331 330 331 331 328 326 328 328 328 329 332 336 338
326 326 328 328 327 327 326 327 328 331 333 333 334 333 333 332 331 333 333 333 334 334 335 335 335 335 336 337 334 333 334 333 333 332 332 331 330 330 330 330 329 329 328 328 328 328 327 326 326 326 325 325 326 326 328 328 328 327 327 327 328 327 327 328 328 328 328 329 330 330 330 330 330 330 330 329 327 328 328 328 329 328 329 331 335
327 327 326 327 327 326 327 327 328 330 331 331 332 332 331 331 331 331 331 332 333 334 333 334 334 335 335 334 332 332 333 332 333 332 330 332 330 329 329 329 329 329 328 328 328 328 328 327 326 326 324 322 324 327 328 329 326 323 324 324 324 326 328 327 327 327 328 329 330 330 330 328 328 329 328 328 328 328 328 328 328 329 329 330 331
329 330 331 331 330 330 328 327 328 330 330 331 332 333 333 332 331 331 332 332 333 333 331 332 333 333 334 333 332 332 332 331 332 332 331 330 328 328 328 327 329 328 328 329 328 329 328 327 326 325 327 325 322 326 327 327 323 321 320 319 322 323 325 325 326 327 329 329 328 327 325 328 329 328 329 328 329 329 328 328 328 328 328 329 331
329 330 331 331 332 331 330 329 329 330 331 331 331 331 333 334 332 330 332 332 335 335 335 333 334 333 333 334 331 331 330 330 331 331 330 330 329 328 327 328 327 328 328 328 328 328 327 327 326 325 324 326 325 328 327 326 322 324 323 320 317 317 320 321 324 325 326 326 328 327 328 330 329 329 328 328 328 329 329 328 327 327 327 328 329
329 330 331 331 332 332 331 330 330 331 332 332 333 333 334 333 331 331 333 333 331 334 335 335 334 334 333 334 330 330 330 329 329 330 330 330 329 328 328 328 328 329 327 327 327 327 327 327 326 326 325 322 323 324 328 324 326 322 317 317 317 318 314 317 320 323 325 324 325 326 328 328 328 328 329 327 328 328 327 327 326 325 325 326 326
329 329 330 331 332 333 333 332 331 331 333 334 333 333 333 331 330 331 332 331 332 332 332 331 333 334 333 331 330 331 331 331 330 329 330 328 329 328 328 328 329 329 329 327 327 327 327 327 327 326 325 324 322 324 326 325 325 327 321 317 315 314 315 318 320 320 324 324 325 325 326 326 327 327 327 328 328 328 327 326 325 324 324 325 325
327 327 329 331 331 332 333 334 333 332 332 333 334 333 331 330 328 327 326 326 326 327 327 328 330 331 332 331 331 331 331 331 331 331 330 330 329 328 328 328 328 329 328 328 327 327 327 326 326 327 325 326 325 324 323 326 326 326 323 322 320 316 316 319 318 312 322 323 325 325 325 326 326 326 327 325 327 327 327 325 323 323 323 323 324
326 328 329 329 331 331 331 333 334 333 331 330 332 332 330 330 329 328 328 327 326 327 330 331 331 331 332 329 329 330 330 330 330 330 330 330 329 328 328 329 329 328 328 327 326 327 327 328 328 326 326 325 326 323 323 323 325 325 324 324 323 320 324 320 316 317 314 319 322 322 323 326 326 326 325 325 326 327 326 325 322 322 321 321 321
325 326 327 327 328 328 329 330 331 333 334 332 330 332 331 330 329 329 326 325 326 327 328 328 328 330 331 330 329 329 330 330 329 330 330 331 330 328 329 329 328 328 328 327 327 328 328 329 328 327 326 326 326 325 324 324 322 323 324 322 323 320 324 321 322 319 317 314 315 319 322 323 324 325 324 325 326 327 325 322 321 320 320 319 319
324 324 325 325 326 326 326 327 328 329 328 327 329 332 330 330 327 326 323 326 327 327 328 328 327 329 330 330 329 328 329 329 329 329 331 331 331 329 328 328 328 328 329 328 328 328 327 327 327 326 325 325 326 326 325 324 324 323 320 320 319 319 320 318 321 319 317 315 314 317 315 318 320 321 322 325 326 327 325 322 322 320 320 318 317
322 323 323 324 325 325 325 325 325 326 326 326 326 327 329 328 326 327 325 324 325 325 326 326 326 327 328 328 329 328 328 328 328 330 330 331 331 330 329 328 328 328 330 328 327 327 327 327 328 328 326 325 326 326 325 326 326 324 324 321 318 317 318 318 318 317 317 317 316 316 316 316 316 316 321 323 324 325 323 322 322 319 317 316 316
321 321 321 322 323 324 323 323 323 324 325 327 328 328 329 328 327 326 325 324 323 323 323 323 324 326 327 327 328 328 329 328 329 329 329 331 331 331 330 329 328 329 329 327 327 327 326 327 328 328 327 326 325 325 325 325 326 324 322 322 321 320 319 317 317 318 318 314 316 315 315 318 317 316 319 322 323 322 321 320 319 317 316 315 314
Wind_Speed
9 11 12 14 14 15 16 18 19 19 18 17 17 18 17 18 19 20 20 20 20 20 20 20 20 20 20 21 20 20 20 20 19 17 18 18 17 17 18 19 17 17 18 18 18 18 17 18 20 19 20 20 20 20 20 18 17 17 16 15 17 16 16 16 17 17 16 17 18 17 16 15 17 16 16 17 18 17 16 17 14 10 9 12 16
12 11 11 11 16 16 17 17 19 19 19 18 17 17 18 19 19 19 19 20 20 20 20 19 19 20 21 20 21 20 20 19 19 18 18 17 16 17 17 18 18 18 18 18 18 20 18 19 20 20 20 19 18 19 19 19 18 18 17 17 17 17 17 16 16 15 16 17 17 17 17 18 15 16 16 17 17 17 17 16 15 9 8 14 17
10 11 10 12 17 16 17 18 19 19 19 18 17 17 18 18 18 19 19 19 19 19 20 19 19 20 20 21 20 20 19 19 19 18 18 18 17 18 18 18 18 18 19 19 18 18 20 20 20 20 20 21 20 19 20 17 15 17 17 17 17 15 17 16 16 16 17 17 18 17 18 16 16 16 17 17 18 18 17 17 16 14 10 17 16
12 10 9 13 17 17 17 18 18 18 18 17 17 18 18 18 18 18 18 18 18 19 18 19 19 19 20 21 20 20 21 20 19 19 18 17 18 17 17 17 18 19 18 18 18 18 18 18 19 19 19 19 20 20 19 18 18 17 16 17 17 17 17 17 16 16 16 16 14 11 6 7 11 16 17 18 19 19 18 17 16 17 17 16 17
11 10 10 10 11 14 17 17 18 18 18 18 17 18 17 17 17 17 17 18 18 19 19 19 19 19 20 20 21 21 21 19 18 18 18 17 17 17 17 17 18 19 18 17 18 18 18 18 18 18 18 18 18 17 16 15 15 15 15 16 16 16 16 16 16 16 16 15 13 8 6 8 7 16 17 18 18 17 17 16 16 15 16 16 16
11 10 9 9 9 12 17 17 18 18 18 18 18 17 17 17 17 17 17 17 17 18 18 18 18 19 20 21 22 21 21 19 18 17 17 16 14 16 17 17 17 17 17 17 17 17 18 18 17 17 17 17 16 15 15 13 13 14 14 15 16 16 16 16 15 15 14 13 11 6 6 6 5 8 16 16 17 17 17 16 14 14 15 17 17
12 9 9 9 8 11 17 18 18 18 18 18 18 17 17 17 17 16 16 17 17 17 17 17 17 18 19 20 20 21 21 20 19 18 17 16 15 13 17 17 17 17 17 16 17 17 16 16 17 17 16 15 15 15 14 13 12 14 15 15 15 15 15 15 14 14 13 8 6 6 6 7 7 7 16 16 16 16 16 15 16 17 17 16 15
9 8 9 9 8 13 17 17 18 18 18 18 18 17 17 17 17 16 16 16 16 16 16 16 17 18 19 20 20 20 19 19 19 18 18 17 16 14 14 16 17 17 16 16 16 16 16 15 15 15 14 15 14 14 13 13 13 14 16 15 15 15 15 14 14 13 12 6 6 6 5 6 6 7 16 17 17 16 16 15 15 16 17 16 14
10 10 9 8 9 17 16 16 17 18 18 19 18 18 17 17 17 16 16 16 16 16 16 17 17 18 18 19 20 19 18 18 18 18 17 17 17 16 15 15 15 16 15 14 14 15 15 15 14 14 14 15 15 14 13 13 13 15 16 15 14 14 14 13 13 12 7 6 6 6 7 6 6 6 14 16 16 16 15 13 12 15 15 14 13
9 9 9 8 9 16 16 16 17 18 18 19 18 18 18 17 17 16 16 15 16 16 17 17 17 18 18 18 19 18 17 18 18 17 17 17 17 16 16 15 15 15 15 15 15 14 14 14 14 14 15 15 15 14 14 14 15 17 15 15 14 14 13 12 12 9 6 6 7 7 6 6 5 8 15 17 17 17 15 13 11 12 13 14 15
10 8 8 8 11 15 15 16 16 18 18 18 19 18 17 17 17 17 17 16 15 16 16 17 16 17 18 18 18 17 17 18 18 18 17 17 16 16 16 15 15 14 14 15 14 14 14 13 14 15 15 15 14 15 15 15 16 16 15 15 14 13 12 12 10 5 6 6 6 6 8 11 8 7 15 17 17 17 16 15 15 16 15 16 16
9 8 7 8 15 14 14 15 15 16 17 17 17 17 17 16 17 16 15 15 15 15 14 14 15 16 17 17 17 17 17 17 17 16 16 15 16 16 15 15 14 14 14 14 15 14 14 14 14 14 15 15 15 15 16 15 15 15 15 15 14 13 13 12 7 6 6 6 6 6 6 6 5 12 17 16 17 17 16 15 16 16 16 16 16
9 8 8 8 9 13 13 14 15 15 16 17 17 17 16 16 16 15 15 13 13 13 13 13 13 13 14 16 16 16 16 16 16 15 15 15 15 15 15 15 14 13 13 13 14 15 15 14 14 14 14 15 15 15 15 16 15 15 15 15 14 13 12 11 6 6 6 6 6 7 7 5 6 15 15 16 16 17 16 16 16 15 15 15 16
9 9 7 8 8 15 13 13 14 14 15 16 15 15 15 14 14 14 12 12 11 12 11 11 11 11 12 14 13 13 14 15 15 15 15 14 14 14 14 13 13 13 12 13 14 15 15 14 14 14 14 14 15 15 15 15 15 15 15 15 14 14 13 9 7 6 6 6 6 7 6 6 8 14 15 15 15 15 15 15 14 15 15 15 15
9 9 8 7 8 10 16 13 14 14 13 14 13 13 13 12 12 12 11 11 11 10 10 12 12 11 12 13 14 14 14 14 14 15 15 13 12 13 13 13 12 12 12 13 14 14 14 14 13 13 13 14 14 15 14 14 14 15 15 14 14 12 11 5 4 5 5 5 4 5 6 6 13 13 15 15 15 14 13 13 13 14 14 14 14
8 9 8 6 7 7 9 14 14 13 13 14 13 13 12 11 11 11 11 11 11 10 10 12 12 12 13 13 13 13 13 14 14 14 13 13 12 11 12 12 12 12 12 13 13 13 14 13 13 13 13 13 15 15 15 14 14 14 15 14 13 12 11 6 5 4 4 5 5 5 5 8 14 13 13 14 13 13 13 14 13 12 12 13 13
9 9 8 7 6 5 5 7 9 14 12 12 13 12 11 11 11 11 11 11 11 10 10 11 12 12 11 11 12 13 13 13 14 14 14 12 11 11 11 11 12 12 13 13 12 13 13 13 14 13 13 13 15 16 15 14 14 15 15 14 14 13 11 8 5 4 4 4 4 5 6 6 13 13 13 14 14 13 13 13 13 13 13 13 13
9 9 10 8 6 6 5 5 7 7 7 11 13 13 12 12 12 11 11 11 11 11 11 10 10 11 10 10 11 11 12 14 14 14 13 11 10 10 10 10 12 13 13 13 12 12 12 13 13 13 13 14 16 16 14 14 14 14 15 14 14 13 11 8 4 4 4 4 5 4 4 10 13 13 14 13 13 12 13 13 13 12 13 13 13
8 8 8 9 8 7 6 6 6 6 7 6 7 11 13 12 11 11 11 12 11 11 12 12 12 11 12 11 11 12 13 15 14 14 13 11 9 9 10 10 11 13 13 13 12 12 12 13 13 13 13 14 15 15 15 14 14 15 14 14 14 12 11 5 4 5 5 4 4 4 5 11 11 12 12 13 13 12 12 12 12 12 13 13 12
6 6 7 7 8 8 7 6 6 6 5 5 6 7 11 12 12 12 11 11 12 11 12 13 13 12 12 12 12 10 11 11 16 12 12 11 9 5 8 9 10 12 13 12 12 12 12 13 13 12 13 13 14 15 14 14 14 14 14 14 13 11 6 4 5 5 5 4 4 3 9 11 11 12 12 13 12 12 12 12 11 11 11 12 12
5 6 6 7 8 9 8 6 6 7 7 6 6 6 9 13 11 11 11 10 11 13 12 13 12 11 10 8 7 5 5 5 8 7 11 6 6 7 8 9 9 11 12 12 12 12 12 12 12 12 13 14 13 15 15 14 14 14 14 14 13 6 4 4 4 4 4 4 4 5 10 9 10 11 11 11 12 11 11 10 10 11 12 12 13
7 7 6 6 7 7 8 8 7 8 8 6 5 5 6 9 6 6 6 8 9 10 9 6 8 4 9 7 4 5 5 4 5 8 6 6 6 7 7 8 8 9 11 11 11 12 12 12 12 12 11 12 14 8 8 12 14 14 14 14 7 5 5 4 4 4 5 4 4 7 10 10 10 10 10 10 10 10 10 10 10 10 11 11 11
8 6 7 7 6 6 8 8 8 8 8 6 5 5 6 5 6 6 7 8 7 7 4 6 4 4 4 4 5 4 5 5 5 6 6 9 6 7 6 7 8 9 10 11 11 11 12 12 12 11 11 10 7 6 6 6 7 13 12 7 6 5 5 5 4 4 4 3 4 10 9 10 10 10 10 10 10 11 11 11 11 11 10 10 10
9 7 7 6 6 6 8 8 9 9 8 6 6 6 5 5 5 6 6 6 6 5 4 4 4 5 5 4 4 4 4 4 8 12 10 6 5 7 6 6 7 8 8 7 10 10 13 12 10 9 7 4 5 5 6 5 5 5 6 5 5 5 5 5 4 4 3 4 4 10 10 10 10 10 10 10 10 9 9 10 10 10 10 10 10
5 6 5 5 7 7 7 8 8 8 8 7 7 6 5 5 4 5 5 5 5 5 5 5 5 5 5 5 5 4 4 4 4 4 4 5 4 4 3 3 4 4 6 4 4 5 6 6 5 5 5 5 6 6 6 6 5 5 5 5 5 5 5 4 3 4 4 4 4 9 9 9 10 9 9 9 9 10 10 10 10 10 9 8 9
5 7 8 5 6 7 7 7 7 8 7 6 6 7 8 6 5 5 5 4 5 5 5 5 4 6 6 6 5 5 4 5 4 4 4 4 4 4 4 4 4 4 4 3 3 4 5 5 5 4 4 4 5 6 6 7 7 6 5 5 5 5 4 4 4 3 3 3 5 9 8 9 9 10 10 9 7 8 9 9 9 10 9 9 9
6 6 5 5 6 6 6 7 7 7 8 7 6 6 6 6 5 5 6 5 5 6 5 5 5 5 6 5 6 5 5 5 5 5 5 4 5 4 4 4 4 4 3 3 3 3 5 5 5 4 4 5 5 6 6 6 6 7 6 4 4 4 4 4 4 4 3 3 5 9 7 8 8 8 9 8 7 7 7 8 8 8 8 8 8
4 6 4 5 7 8 8 8 6 7 7 7 6 7 6 6 7 8 6 8 7 6 5 5 5 5 5 5 5 5 6 6 6 6 5 5 5 4 4 4 4 4 4 3 3 3 4 5 5 5 5 5 5 5 6 6 6 6 6 5 5 5 5 4 4 4 3 3 4 8 8 7 8 8 8 9 8 8 8 8 9 9 8 8 8
6 6 6 6 6 6 7 8 7 8 7 7 7 6 6 7 7 6 6 8 6 5 5 5 5 4 4 5 5 6 5 5 6 6 5 5 4 4 4 4 4 4 4 4 4 4 4 4 5 5 5 5 5 6 6 6 6 5 6 5 5 5 5 4 4 4 3 3 3 6 9 8 8 7 9 9 8 9 8 8 8 8 8 8 8
7 5 8 6 4 5 7 8 7 7 6 6 6 6 6 7 7 6 6 5 5 4 5 4 4 4 4 4 4 5 5 5 5 4 6 4 4 4 4 4 4 3 4 4 3 4 4 4 5 5 5 5 5 5 6 6 5 5 5 5 5 5 4 5 4 4 3 3 3 4 9 8 5 2 6 7 8 8 8 8 8 8 7 8 8
3 4 3 5 5 6 6 6 7 8 7 8 6 7 5 6 6 5 6 5 5 5 4 4 3 3 3 3 3 3 4 4 4 5 4 4 4 4 4 4 4 3 3 3 3 4 4 4 5 5 5 5 5 5 5 6 5 5 4 5 5 5 4 4 4 3 3 3 2 2 4 4 3 5 7 5 8 8 8 8 8 8 8 8 8
6 6 5 4 6 7 6 6 8 8 8 8 7 6 6 5 5 4 5 5 6 5 5 4 4 3 3 3 3 3 4 4 5 5 5 5 5 5 4 4 4 3 4 3 4 4 5 4 4 4 5 5 5 4 4 5 5 5 5 6 5 5 5 4 4 3 3 3 2 3 3 2 3 8 8 9 7 7 6 5 5 7 8 8 8
4 4 5 5 6 5 6 6 7 8 8 8 7 5 4 5 5 5 5 5 5 5 5 5 5 5 4 5 4 4 4 5 5 6 6 5 5 5 4 4 4 4 4 4 4 5 5 4 4 4 5 5 5 5 5 5 5 5 5 6 5 6 5 4 4 4 3 3 3 2 3 3 4 6 8 8 8 7 6 3 3 4 6 7 9
4 4 4 5 3 4 5 5 5 5 5 4 4 5 5 4 4 4 5 5 5 5 5 5 6 5 5 5 5 4 4 5 5 5 5 4 4 4 5 4 4 4 4 4 4 4 4 5 5 5 5 6 6 6 6 6 4 4 5 5 5 6 6 5 4 4 4 3 3 3 3 3 3 3 4 6 7 6 5 4 2 2 5 5 6
3 3 4 4 4 5 4 4 4 3 4 3 4 4 4 4 5 5 5 6 6 5 5 5 5 6 6 6 6 6 5 5 6 6 5 4 5 4 4 4 3 3 4 4 4 3 4 4 4 5 4 4 5 4 5 6 7 7 5 5 6 6 6 6 5 5 4 3 3 3 3 2 3 3 3 3 4 7 6 5 6 4 2 3 5
6 5 3 4 5 5 5 3 3 4 3 3 3 5 6 5 5 5 5 6 6 6 6 6 6 5 6 6 7 7 6 6 6 5 5 3 1 4 3 2 3 4 4 4 4 5 4 4 4 5 6 5 6 5 4 6 5 6 5 5 6 6 5 6 6 4 4 3 3 3 2 2 3 3 3 3 4 4 5 5 5 5 5 2 4
4 3 4 4 6 6 5 2 2 3 2 3 3 3 5 5 6 6 7 6 6 6 5 5 5 6 6 6 6 6 6 6 5 5 5 5 5 4 3 2 2 3 4 5 5 5 5 5 3 2 5 6 6 7 6 5 6 5 5 5 5 5 5 6 6 4 4 4 4 3 3 2 3 4 3 3 4 3 5 7 6 6 5 4 2
3 3 4 6 7 4 2 2 3 3 3 4 4 4 4 4 5 6 6 6 6 5 5 5 6 6 6 5 5 4 5 5 4 5 6 6 3 2 2 3 3 2 4 5 5 5 5 6 6 3 5 6 6 8 8 6 6 6 5 5 5 4 4 3 3 4 4 4 4 4 3 2 3 3 3 3 3 3 2 5 6 6 6 5 2
3 3 3 4 3 2 3 2 3 4 4 4 4 4 4 4 4 5 6 5 5 5 6 6 6 6 6 5 4 3 7 4 5 8 7 6 5 4 3 3 3 3 3 5 5 5 5 4 6 5 4 4 6 7 8 8 7 6 5 4 4 4 4 5 4 3 4 4 5 4 3 3 3 3 3 3 2 2 3 3 3 3 3 6 4
3 2 1 1 2 1 1 2 3 2 4 3 2 3 3 5 5 6 6 7 7 6 7 6 6 6 5 5 4 7 6 5 5 7 7 6 5 4 4 3 2 3 4 6 6 5 7 7 5 6 6 5 5 6 8 8 7 6 6 5 4 4 5 4 5 0 2 4 4 4 4 2 3 3 3 2 2 2 3 3 3 3 3 5 6
4 4 3 3 3 3 3 2 2 2 3 4 3 4 4 5 4 7 7 7 7 7 7 6 6 5 5 5 6 7 5 6 6 6 6 7 7 5 4 3 3 2 3 4 4 3 2 4 6 6 7 5 4 6 7 7 8 4 5 5 6 4 5 5 4 3 0 2 3 4 4 3 2 4 3 2 2 3 3 4 3 3 3 2 3
4 3 2 2 2 0 2 3 3 2 1 3 3 4 3 3 3 4 4 4 6 7 6 6 6 5 5 5 5 6 6 6 7 6 6 6 6 7 6 5 4 5 3 0 3 6 5 6 6 4 2 5 3 6 8 7 4 5 5 4 4 4 4 4 4 2 2 3 3 3 3 4 4 4 3 2 3 4 4 4 3 3 3 3 3
5 4 2 2 2 2 1 3 2 2 1 2 3 3 2 3 3 2 2 1 1 1 2 3 4 5 4 5 6 8 7 5 6 7 6 7 6 6 6 7 6 4 4 4 4 5 6 8 7 7 6 3 3 5 8 2 5 5 5 4 3 2 2 3 1 2 2 2 3 4 3 3 6 4 3 3 3 4 4 3 3 3 3 4 3
4 5 4 4 3 3 1 1 2 1 0 1 2 2 2 1 1 2 2 2 1 0 0 2 4 5 5 4 6 6 6 7 6 7 7 8 8 7 6 6 8 8 7 6 7 6 7 7 6 6 8 6 3 5 5 3 4 9 5 2 3 3 3 2 3 1 3 4 4 3 5 4 5 4 2 3 3 3 4 3 4 3 3 3 3
4 4 3 3 3 4 2 2 3 4 4 2 2 3 3 3 3 3 3 3 3 2 2 2 3 4 3 4 5 6 6 5 5 6 7 6 6 7 6 7 7 8 7 6 6 7 6 5 5 6 9 9 7 5 6 3 5 1 5 5 3 2 3 3 5 1 2 4 4 4 5 5 4 3 2 2 3 3 4 3 3 3 3 3 4
4 5 4 2 2 3 5 4 2 3 4 3 4 4 5 5 4 3 2 2 3 3 5 4 4 4 4 2 5 6 5 4 3 4 6 7 7 7 7 7 7 7 6 6 6 5 6 7 8 7 7 6 8 6 6 5 4 3 2 1 2 4 6 6 5 3 1 2 4 4 5 5 4 2 2 2 3 3 3 2 2 3 3 3 3
6 5 5 6 4 2 3 5 5 3 2 2 2 2 2 3 5 4 4 4 4 3 3 4 2 1 3 5 5 5 6 6 6 5 5 4 5 6 7 7 6 6 5 4 5 7 7 8 7 5 2 2 6 9 9 7 3 3 2 0 1 1 6 9 4 4 4 1 3 3 3 5 3 3 2 2 3 3 3 2 3 2 2 2 3
5 6 7 7 7 6 5 5 5 5 4 3 3 2 0 2 4 4 2 2 3 3 2 3 4 4 3 6 7 6 5 5 6 6 6 6 6 6 6 6 6 7 7 7 7 6 5 4 6 6 4 5 5 7 9 7 9 7 4 3 3 1 4 3 5 6 5 7 3 1 3 4 3 3 1 3 4 4 4 2 2 2 2 2 2
8 10 9 7 7 7 7 5 5 6 6 5 2 3 5 3 3 3 5 4 0 3 4 1 1 1 3 3 4 6 5 6 6 7 8 8 7 7 7 7 7 7 7 7 6 6 8 8 7 7 7 7 7 6 7 9 7 7 6 2 2 2 3 3 4 4 4 5 3 4 3 2 2 1 1 2 4 5 5 3 2 2 2 1 2
6 4 6 7 7 7 7 6 4 3 3 3 4 4 4 3 1 2 4 5 2 2 2 1 1 2 5 4 4 5 5 5 6 6 7 7 7 7 7 7 7 7 7 7 6 6 6 7 8 9 8 9 7 7 8 8 8 5 6 5 4 3 4 2 2 4 4 3 6 7 6 6 5 0 1 4 5 5 3 3 3 2 2 2 1
8 8 8 8 7 6 5 6 4 3 2 2 3 5 1 4 5 5 7 8 9 8 5 6 6 4 4 6 4 4 5 6 5 6 7 6 7 7 7 7 6 6 6 7 7 7 6 6 7 8 9 9 7 7 6 6 6 6 6 6 6 8 7 6 6 5 5 4 6 5 5 5 5 4 2 2 4 4 3 2 3 2 1 1 1
Wind_Direction
139 130 130 124 122 122 118 116 114 113 114 114 115 115 114 114 111 112 112 113 115 116 118 120 121 121 119 119 118 118 115 114 115 114 108 107 108 112 112 102 103 102 101 98 93 91 85 83 87 89 88 89 91 90 90 89 90 90 87 85 89 89 87 81 82 82 83 87 87 88 88 87 88 88 84 80 80 76 73 74 70 67 70 76 74
139 129 124 128 125 124 122 121 117 115 117 118 117 117 116 114 114 114 115 117 119 121 122 122 123 122 120 118 118 117 116 116 117 114 112 110 109 110 111 109 109 107 102 99 96 94 91 90 90 92 94 94 93 93 91 88 86 89 87 84 85 87 87 89 90 90 89 86 86 84 82 82 85 88 85 83 82 79 77 74 72 70 69 73 75
122 125 124 130 128 126 123 123 121 120 120 119 119 117 117 115 116 117 119 120 121 122 124 125 124 122 121 119 118 117 116 117 117 115 112 111 113 114 113 111 109 108 106 102 97 91 91 92 92 91 89 88 88 92 93 92 95 89 87 87 84 83 86 85 81 80 79 80 80 82 83 82 80 85 89 87 82 79 77 74 72 72 70 68 67
126 123 124 128 129 125 128 127 125 122 120 121 121 119 119 118 119 120 122 122 121 126 127 126 124 123 121 119 118 118 118 120 121 118 115 116 116 117 115 115 113 106 104 103 100 94 94 95 93 92 93 89 88 88 88 85 83 84 87 89 90 87 83 81 80 76 73 72 68 64 61 77 85 82 79 75 74 73 73 72 72 72 72 71 70
121 127 124 123 129 129 129 129 125 123 123 122 121 121 122 122 121 121 123 124 125 126 127 127 126 124 122 121 121 119 120 119 117 118 120 120 116 118 119 118 116 109 104 106 104 99 93 92 91 89 85 86 86 81 81 85 85 80 85 87 84 81 80 77 76 76 75 69 63 56 47 58 69 73 74 75 76 75 75 75 75 75 76 77 81
127 126 126 129 129 131 130 129 127 125 124 125 124 123 124 124 124 125 127 126 127 126 127 128 127 125 124 124 122 122 122 120 119 119 117 117 117 121 120 122 119 112 111 106 101 101 100 100 95 92 86 79 75 75 74 78 90 86 88 89 86 85 83 81 78 75 69 63 59 56 52 49 56 74 79 79 79 77 76 77 82 86 84 82 81
128 126 131 132 132 133 133 131 128 128 127 126 125 124 127 126 126 126 127 127 127 128 128 129 130 127 126 124 124 124 124 123 123 121 118 115 113 115 122 122 117 113 113 110 111 105 98 93 92 89 83 75 71 71 74 77 86 96 96 91 88 87 86 86 83 77 70 62 52 51 50 53 56 75 85 84 82 80 82 82 81 80 81 79 78
124 130 133 134 134 136 134 130 130 131 130 128 127 128 127 127 129 128 128 130 130 130 131 132 133 130 127 127 125 124 124 124 123 125 125 123 120 118 116 116 115 114 114 115 113 108 103 99 93 89 82 77 73 72 76 83 90 106 105 98 93 91 91 90 84 76 69 62 59 58 56 52 63 78 83 80 81 83 86 87 78 75 75 78 76
131 133 133 133 136 134 132 132 133 134 133 132 131 131 131 132 130 130 133 132 133 133 134 135 135 132 130 128 126 126 125 125 124 123 123 123 123 122 119 114 112 113 114 113 111 108 105 104 101 93 86 78 74 73 81 86 93 109 107 99 96 93 92 89 81 72 67 66 73 75 75 72 70 75 85 86 83 82 82 63 71 76 80 84 85
131 128 133 133 133 132 133 134 136 136 136 135 136 134 135 134 135 136 135 136 138 138 137 138 137 134 132 131 128 127 128 123 118 115 117 117 116 106 103 109 110 114 114 112 110 108 106 103 97 91 84 79 78 85 92 92 99 107 105 100 96 94 90 83 77 73 70 71 72 81 89 82 72 95 93 89 92 96 97 94 95 89 83 94 92
130 130 130 129 134 134 137 138 138 139 139 137 137 136 138 139 140 138 138 140 139 139 139 139 138 134 132 132 129 130 128 122 121 119 119 116 113 111 111 113 113 115 117 117 116 111 103 97 93 89 85 84 86 95 99 98 106 106 103 100 96 93 85 76 70 62 69 71 64 55 71 74 76 75 90 91 87 85 94 96 84 74 79 82 80
123 124 126 134 138 137 139 139 138 140 139 138 138 140 140 142 142 140 141 141 141 140 139 138 140 136 135 134 133 133 129 124 124 124 122 120 118 116 115 114 115 117 118 118 115 108 99 95 92 90 87 89 94 101 104 103 104 103 102 100 97 94 87 79 71 65 62 58 59 58 53 77 91 96 94 90 87 90 88 83 79 78 80 82 81
124 126 131 134 132 141 139 139 140 141 140 139 141 141 141 143 143 142 143 142 143 141 138 137 138 138 135 135 137 134 131 128 128 128 126 124 119 116 116 115 115 116 117 115 110 104 100 97 94 92 91 94 101 108 110 108 107 105 103 101 99 95 89 81 68 69 67 64 64 69 69 64 93 100 100 94 92 91 86 82 79 78 76 75 73
126 130 134 131 138 143 139 141 139 140 142 141 142 143 142 145 145 144 142 142 139 139 136 135 134 137 138 136 136 132 130 131 131 131 126 120 120 119 118 116 114 113 112 111 108 105 103 100 97 93 92 96 103 111 115 111 109 107 105 103 103 100 94 86 81 75 74 76 78 71 68 74 81 85 85 90 93 87 85 82 82 80 75 74 72
132 130 129 136 141 144 146 145 144 143 144 141 139 141 143 145 143 141 141 137 136 137 135 134 136 138 135 133 134 133 133 137 136 129 124 126 124 123 121 119 116 114 110 109 109 107 104 101 98 96 98 103 113 118 119 114 111 108 107 106 104 100 93 77 79 79 87 81 76 81 90 90 92 94 96 94 91 89 89 88 86 82 81 76 73
124 126 125 129 136 147 146 151 148 146 144 140 139 140 142 141 138 139 137 136 138 137 135 137 138 140 138 135 134 138 142 142 135 127 129 130 126 124 123 121 119 115 112 110 109 108 105 102 100 100 102 113 123 122 122 118 115 112 110 108 106 105 101 93 82 74 77 83 83 78 94 103 98 95 95 96 96 92 87 86 86 82 80 80 76
125 128 131 133 130 130 138 144 150 148 140 137 138 138 137 137 141 139 137 137 139 137 134 137 139 142 138 137 138 145 148 144 135 133 131 128 127 128 126 122 121 117 113 112 112 110 108 104 101 102 106 116 126 126 124 121 116 112 110 110 110 106 100 91 71 67 68 75 74 86 89 98 111 109 104 99 96 95 91 86 85 87 86 81 79
136 143 143 139 131 130 127 134 145 142 143 141 139 138 140 145 145 141 139 140 139 138 136 136 136 137 138 138 145 150 149 143 133 131 130 130 131 132 128 126 123 119 115 115 114 112 110 105 104 103 105 112 125 127 124 119 114 110 110 111 112 107 100 87 69 63 60 69 82 90 100 110 103 103 104 103 98 97 98 97 92 89 88 88 84
143 147 140 141 142 137 140 143 144 143 141 137 142 149 148 147 144 142 142 141 139 138 139 141 142 142 143 145 153 158 152 140 135 133 131 132 135 133 132 128 124 120 117 116 115 114 109 105 101 99 100 105 116 121 118 115 112 111 112 114 113 110 94 76 67 63 59 58 54 69 92 99 102 104 101 101 103 101 100 94 95 95 92 90 88
135 145 145 144 145 144 150 145 136 134 127 126 137 147 151 143 145 143 143 141 140 137 142 142 144 144 147 154 162 161 148 144 140 134 135 135 135 136 135 129 125 122 120 119 116 114 109 105 98 96 99 101 108 110 113 114 114 115 117 117 113 92 72 71 73 67 63 59 53 63 106 106 105 105 106 105 104 103 97 94 94 98 97 93 93
146 150 158 154 151 149 144 132 132 127 128 131 138 145 155 150 146 142 139 139 143 146 144 148 150 153 153 156 138 127 133 135 135 133 135 135 141 144 138 132 126 126 123 121 116 112 109 104 100 102 106 111 112 116 117 117 116 118 117 113 99 83 80 74 71 67 61 56 62 73 92 93 102 101 100 102 106 104 101 103 106 99 97 95 94
145 152 165 157 151 141 135 134 134 138 138 135 134 138 147 146 134 140 138 147 150 150 150 152 153 146 158 147 116 134 132 137 141 140 131 142 145 151 141 130 129 126 123 119 115 113 108 103 101 101 103 117 120 115 116 118 118 117 117 109 96 98 93 86 84 85 87 80 90 111 113 114 108 107 107 105 104 103 102 95 91 94 95 94 99
155 165 166 162 160 148 140 139 135 136 136 134 130 124 126 135 141 143 149 151 157 148 144 147 110 125 110 120 121 124 137 147 148 143 139 145 150 150 143 133 131 129 125 120 118 113 108 103 100 100 103 105 104 110 107 104 115 118 111 102 98 92 93 91 88 88 92 88 102 113 112 109 107 108 104 103 106 107 109 110 106 100 99 100 95
167 166 167 164 157 156 144 138 138 144 143 141 136 134 138 141 147 147 147 146 142 136 134 126 123 118 121 113 125 137 139 153 163 153 142 139 151 147 145 142 133 128 124 114 116 116 105 97 97 95 98 97 108 109 109 99 96 94 103 105 102 109 106 109 103 97 91 93 104 121 114 114 114 107 109 108 100 104 104 102 101 101 99 97 97
169 143 159 168 156 153 146 146 145 149 146 141 144 140 137 134 138 136 130 131 124 120 128 130 135 128 127 129 135 143 144 143 136 132 139 135 134 139 136 93 81 72 83 80 79 96 97 103 94 89 101 104 113 119 118 112 114 117 110 115 116 112 106 100 99 98 99 107 120 123 126 119 114 115 111 111 121 121 118 115 112 107 103 103 102
155 161 173 156 158 158 151 143 141 149 152 147 147 147 146 147 142 141 131 128 128 131 127 133 145 146 144 147 140 136 137 131 136 130 136 134 137 137 135 112 94 85 83 80 86 98 104 108 109 100 100 99 111 124 121 127 128 122 123 122 124 114 105 98 99 100 103 106 123 130 136 126 124 123 117 114 110 115 119 119 116 115 119 116 109
177 174 167 151 155 153 151 145 145 148 152 148 144 147 152 146 141 144 142 145 144 143 154 150 170 158 153 150 145 151 151 146 150 150 153 149 146 147 150 136 121 109 111 112 94 99 108 113 111 105 108 103 107 115 123 124 128 128 127 128 123 116 106 110 111 110 96 109 130 129 113 106 109 108 109 116 120 121 124 124 122 123 122 113 114
179 165 167 157 165 164 158 154 154 156 154 153 149 152 150 150 155 161 155 163 156 160 162 164 156 164 162 158 154 155 156 158 161 161 162 158 156 157 153 142 135 136 137 140 121 90 96 113 121 116 108 107 118 124 124 126 129 132 133 131 122 119 118 120 115 114 109 107 119 130 125 123 124 125 129 126 125 134 140 136 135 135 135 133 125
186 173 172 166 174 163 156 156 160 163 159 157 163 156 159 157 164 163 161 173 157 164 163 156 157 166 166 159 156 156 160 161 166 165 158 167 151 155 156 156 152 150 140 132 128 115 99 114 128 124 113 113 121 127 128 128 131 136 136 135 130 124 126 118 114 113 107 104 129 143 136 142 150 150 131 131 127 127 140 144 143 143 138 129 129
198 177 163 169 169 157 164 165 168 166 158 159 170 171 174 167 171 168 165 156 152 143 152 158 157 163 171 168 165 155 164 167 165 157 169 170 154 153 154 156 162 152 149 152 144 119 118 116 127 127 120 117 120 134 133 133 133 133 136 132 133 131 121 121 117 114 106 112 123 139 148 159 168 209 143 125 128 133 141 142 146 145 138 130 129
158 182 175 170 170 164 169 167 170 171 166 178 172 181 180 172 166 151 162 151 140 139 142 146 151 170 169 162 156 153 148 157 163 168 180 167 162 160 163 152 154 171 168 158 133 119 121 144 149 145 132 127 128 135 134 133 127 122 126 129 134 130 127 120 103 104 101 97 91 123 133 116 78 37 19 119 134 134 136 141 140 141 141 140 140
183 187 178 164 172 179 171 174 177 175 177 179 175 174 178 164 155 149 157 135 140 145 151 152 159 163 160 175 164 151 150 163 166 174 186 175 176 172 164 161 174 175 174 170 127 109 135 158 149 137 129 128 124 116 115 126 120 124 133 137 136 134 132 127 111 104 101 90 103 98 102 82 90 63 73 67 81 92 91 105 133 145 144 148 149
194 166 165 165 182 180 174 187 186 181 180 178 175 168 152 152 157 166 149 142 145 149 158 166 169 172 178 184 175 162 168 169 177 185 192 185 176 171 168 178 177 176 170 168 121 121 133 134 125 122 114 119 115 110 105 89 117 122 131 141 142 138 135 130 128 123 114 115 105 104 60 56 47 72 77 82 81 82 79 88 135 148 139 152 157
182 161 146 171 171 190 183 181 194 183 179 173 163 148 155 157 148 144 147 147 155 158 167 173 174 175 179 181 168 194 184 177 173 184 184 179 170 179 177 184 178 171 147 131 125 137 136 141 146 132 139 136 132 134 126 121 114 124 135 145 142 144 141 137 136 135 128 106 114 88 80 58 72 62 49 74 81 74 55 48 80 144 149 165 159
177 175 178 158 170 196 190 186 182 164 174 181 165 147 145 157 155 154 155 162 163 169 173 173 181 181 177 183 172 191 198 182 183 179 178 173 175 182 188 188 168 158 144 149 146 142 139 146 146 128 109 102 108 111 124 130 139 142 145 148 150 145 143 145 141 140 130 117 104 93 80 74 80 65 58 44 49 47 50 53 39 37 98 158 141
197 187 142 149 188 200 202 175 154 160 173 172 167 157 161 164 159 158 154 160 164 174 176 184 189 182 184 185 181 192 193 188 182 177 171 127 164 185 160 120 168 151 144 150 149 155 156 147 162 138 123 115 119 102 112 131 137 138 144 148 151 150 148 150 149 142 134 120 105 97 74 85 73 80 73 60 54 52 48 54 54 52 47 111 186
203 168 164 180 209 203 199 148 134 151 153 156 156 149 158 161 164 159 160 163 169 176 176 172 184 192 191 193 184 190 195 188 181 172 105 144 184 178 165 79 69 122 132 148 163 165 160 144 124 137 136 140 135 130 127 135 137 139 141 148 153 154 156 157 150 141 133 126 131 121 112 90 93 73 67 64 56 50 31 32 30 16 20 19 185
212 171 177 199 215 196 135 120 90 115 124 145 158 161 165 168 163 156 156 165 173 174 168 171 190 197 192 193 180 189 205 183 160 98 126 192 180 169 90 91 84 90 135 146 158 157 154 154 152 139 141 137 143 142 139 139 144 142 140 141 148 152 157 73 87 127 139 141 142 139 133 111 100 86 70 65 59 44 37 36 34 22 12 13 16
246 192 182 210 224 198 122 162 118 131 138 139 153 157 152 156 148 147 156 165 175 182 171 183 193 193 192 174 124 167 219 151 138 125 164 179 170 117 155 134 138 128 142 138 140 141 141 147 150 123 95 112 139 141 140 138 138 131 129 132 135 127 91 149 125 142 148 154 150 137 130 124 112 89 81 70 60 63 61 54 42 33 357 18 30
325 328 297 274 275 353 55 70 60 107 135 143 162 170 164 161 162 161 171 181 178 183 188 193 185 190 177 137 121 200 202 165 148 155 162 177 163 150 170 157 172 133 151 150 152 155 157 145 122 114 101 89 98 127 133 128 115 113 113 99 71 81 112 92 102 86 147 148 146 144 149 133 117 103 86 85 82 69 67 58 51 36 20 7 31
336 338 343 341 355 22 43 55 92 118 135 161 184 188 178 177 192 193 191 181 182 173 181 189 196 188 161 133 132 224 194 167 170 164 157 168 166 157 156 144 165 178 214 189 153 129 120 119 117 124 127 119 129 135 137 128 122 91 80 76 72 71 96 97 112 117 91 155 137 153 152 120 114 111 114 120 85 78 63 62 53 44 22 28 17
291 294 263 248 250 108 104 94 97 92 158 195 195 203 220 223 243 221 197 184 181 182 180 187 197 179 160 142 144 211 211 171 169 162 153 133 158 160 150 145 151 191 235 286 140 154 164 150 137 110 48 103 95 158 152 136 139 153 137 116 68 72 68 63 75 100 161 155 157 129 125 130 125 122 124 94 90 80 65 63 60 40 28 25 27
298 291 295 309 309 326 98 104 113 118 151 222 265 259 244 245 256 316 230 27 329 216 179 187 196 192 187 168 145 208 200 184 169 159 136 150 169 162 161 154 159 158 192 174 169 173 163 150 156 148 131 103 147 167 170 182 138 131 117 108 138 110 97 81 52 141 125 110 123 134 128 131 124 124 122 100 94 77 74 64 55 44 27 29 27
310 317 334 339 348 347 30 114 127 122 186 198 213 253 236 136 69 88 104 75 54 33 60 148 188 199 203 147 141 201 200 187 175 164 158 167 164 170 180 154 164 181 187 174 180 188 161 157 159 154 136 138 165 177 189 179 153 139 149 183 155 132 127 157 157 180 137 123 116 131 143 133 126 119 86 102 100 88 75 71 60 41 33 34 32
318 326 338 4 11 4 333 204 169 171 175 181 176 159 145 111 100 75 86 83 73 138 198 243 194 202 160 148 150 178 219 209 170 176 181 177 175 178 169 177 181 177 187 170 184 194 170 152 140 155 168 162 166 158 191 181 190 127 133 129 101 175 207 143 141 72 116 137 143 142 102 88 109 132 117 100 103 96 93 68 61 50 37 37 40
357 336 330 348 12 337 351 336 246 200 198 185 163 161 165 159 142 155 172 168 171 171 205 203 192 198 194 142 146 166 190 214 189 188 189 178 179 182 182 179 178 172 180 171 169 183 152 151 181 187 184 184 152 160 173 205 212 161 94 45 173 168 163 155 154 176 35 68 115 126 129 137 131 128 140 127 117 109 96 85 72 64 47 46 45
355 348 359 1 359 4 2 5 346 312 274 246 192 141 170 172 171 196 205 202 199 189 185 198 136 333 172 145 153 167 178 177 194 193 208 203 184 184 184 184 174 157 138 123 186 185 168 172 175 188 152 106 152 166 176 183 181 240 199 269 346 299 152 145 180 117 152 138 98 133 150 141 154 146 147 141 141 135 119 97 92 85 63 48 60
345 354 4 2 0 360 13 19 17 2 346 346 3 339 30 199 211 199 93 337 311 309 231 114 141 196 200 164 158 172 185 186 185 189 200 211 194 191 186 177 171 169 178 187 193 182 156 157 154 151 157 178 196 176 177 170 176 196 179 220 285 301 188 30 145 163 154 159 149 55 86 135 178 135 116 159 161 156 146 126 126 110 96 71 76
21 13 2 351 344 354 360 3 20 38 25 11 332 265 213 170 124 127 162 211 108 306 331 355 95 338 277 171 169 168 185 191 191 192 200 205 196 189 180 179 178 171 181 186 186 175 173 167 162 167 181 188 194 192 165 183 193 188 148 162 84 104 111 30 100 76 138 140 126 155 139 78 97 356 139 166 171 166 164 164 149 132 123 103 78
28 12 356 342 340 337 339 342 6 14 308 312 324 330 24 20 43 227 170 182 170 110 186 148 107 237 240 241 202 179 191 202 207 204 207 202 195 186 181 184 185 174 179 177 172 174 184 184 178 180 186 190 194 179 182 183 194 175 178 148 143 106 84 50 71 106 61 76 156 169 163 152 153 193 155 171 163 163 148 156 136 131 127 122 93
15 7 357 344 331 333 326 327 321 321 351 321 283 283 210 182 212 176 162 166 176 189 179 157 157 215 231 205 214 203 185 205 208 215 214 200 198 189 183 186 186 183 179 168 175 180 188 186 183 181 186 190 187 183 177 180 179 171 170 173 170 168 169 172 182 181 149 140 123 145 156 164 153 136 166 153 159 151 142 127 143 132 127 114 64